Time,TemperatureF,DewpointF,PressureIn,WindDirection,WindDirectionDegrees,WindSpeedMPH,WindSpeedGustMPH,Humidity,HourlyPrecipIn,Conditions,Clouds,dailyrainin,SolarRadiationWatts/m^2,SoftwareType,DateUTC
2013-02-07 00:01:00,59.0,57.9,29.96,NE,37,0.0,3.0,96,0.00,,,0.40,0.0,meteohub,2013-02-07 06:01:00,
2013-02-07 00:06:00,58.8,57.7,29.94,NE,37,0.0,3.0,96,0.00,,,0.00,0.0,meteohub,2013-02-07 06:06:00,
2013-02-07 00:11:00,58.8,57.7,29.94,NE,37,0.0,3.0,96,0.00,,,0.00,0.0,meteohub,2013-02-07 06:11:00,
2013-02-07 00:16:00,58.8,57.7,29.94,NE,37,0.0,2.0,96,0.00,,,0.00,0.0,meteohub,2013-02-07 06:16:00,
2013-02-07 00:21:00,58.6,57.6,29.93,NE,37,0.0,2.0,96,0.00,,,0.00,0.0,meteohub,2013-02-07 06:21:00,
2013-02-07 00:26:00,58.6,57.6,29.93,NE,37,0.0,1.0,96,0.00,,,0.00,0.0,meteohub,2013-02-07 06:26:00,
2013-02-07 00:31:00,58.5,57.4,29.93,NE,37,0.0,1.0,96,0.00,,,0.00,0.0,meteohub,2013-02-07 06:31:00,
2013-02-07 00:36:00,58.5,57.4,29.93,NE,37,0.0,1.0,96,0.00,,,0.00,0.0,meteohub,2013-02-07 06:36:00,
2013-02-07 00:41:00,58.5,57.4,29.92,NE,37,0.0,1.0,96,0.00,,,0.00,0.0,meteohub,2013-02-07 06:41:00,
2013-02-07 00:46:00,58.3,57.2,29.93,NE,37,0.0,1.0,96,0.00,,,0.00,0.0,meteohub,2013-02-07 06:46:00,
2013-02-07 00:51:00,58.3,57.2,29.93,NE,37,0.0,0.0,96,0.00,,,0.00,0.0,meteohub,2013-02-07 06:51:00,
2013-02-07 00:56:00,57.9,56.8,29.93,NE,37,0.0,0.0,96,0.00,,,0.00,0.0,meteohub,2013-02-07 06:56:00,
2013-02-07 01:01:00,57.9,56.8,29.93,NE,37,0.0,0.0,96,0.00,,,0.00,0.0,meteohub,2013-02-07 07:01:00,
2013-02-07 01:06:00,57.7,56.7,29.93,NE,37,0.0,0.0,96,0.00,,,0.00,0.0,meteohub,2013-02-07 07:06:00,
2013-02-07 01:11:00,57.6,56.5,29.93,NE,37,0.0,0.0,96,0.00,,,0.00,0.0,meteohub,2013-02-07 07:11:00,
2013-02-07 01:16:00,57.4,56.3,29.93,NE,37,0.0,0.0,96,0.00,,,0.00,0.0,meteohub,2013-02-07 07:16:00,
2013-02-07 01:21:00,57.2,56.1,29.93,NE,37,0.0,0.0,96,0.00,,,0.00,0.0,meteohub,2013-02-07 07:21:00,
2013-02-07 01:26:00,57.0,55.9,29.92,NE,37,0.0,0.0,96,0.00,,,0.00,0.0,meteohub,2013-02-07 07:26:00,
2013-02-07 01:31:00,56.8,55.8,29.92,NE,37,0.0,0.0,96,0.00,,,0.00,0.0,meteohub,2013-02-07 07:31:00,
2013-02-07 01:36:00,56.8,55.8,29.93,NE,37,0.0,0.0,96,0.00,,,0.00,0.0,meteohub,2013-02-07 07:36:00,
2013-02-07 01:41:00,56.7,55.6,29.93,NE,37,0.0,0.0,96,0.00,,,0.00,0.0,meteohub,2013-02-07 07:41:00,
2013-02-07 01:46:00,56.5,55.4,29.93,NE,37,0.0,0.0,96,0.00,,,0.00,0.0,meteohub,2013-02-07 07:46:00,
2013-02-07 01:51:00,56.3,55.2,29.93,NE,37,0.0,0.0,96,0.00,,,0.00,0.0,meteohub,2013-02-07 07:51:00,
2013-02-07 01:56:00,56.1,55.0,29.92,NE,37,0.0,0.0,96,0.00,,,0.00,0.0,meteohub,2013-02-07 07:56:00,
2013-02-07 02:01:00,55.9,54.9,29.93,NE,37,0.0,0.0,96,0.00,,,0.00,0.0,meteohub,2013-02-07 08:01:00,
2013-02-07 02:06:00,55.9,54.9,29.92,NE,37,0.0,0.0,96,0.00,,,0.00,0.0,meteohub,2013-02-07 08:06:00,
2013-02-07 02:11:00,55.8,54.3,29.93,NE,37,0.0,0.0,95,0.00,,,0.00,0.0,meteohub,2013-02-07 08:11:00,
2013-02-07 02:16:00,55.6,54.5,29.92,NE,37,0.0,0.0,96,0.00,,,0.00,0.0,meteohub,2013-02-07 08:16:00,
2013-02-07 02:21:00,55.4,54.3,29.92,NE,37,0.0,0.0,96,0.00,,,0.00,0.0,meteohub,2013-02-07 08:21:00,
2013-02-07 02:26:00,55.2,54.1,29.92,NE,37,0.0,0.0,96,0.00,,,0.00,0.0,meteohub,2013-02-07 08:26:00,
2013-02-07 02:31:00,55.2,54.1,29.92,NE,37,0.0,0.0,96,0.00,,,0.00,0.0,meteohub,2013-02-07 08:31:00,
2013-02-07 02:36:00,55.2,54.1,29.91,NE,37,0.0,0.0,96,0.00,,,0.00,0.0,meteohub,2013-02-07 08:36:00,
2013-02-07 02:41:00,55.0,54.0,29.91,NE,37,0.0,0.0,96,0.00,,,0.00,0.0,meteohub,2013-02-07 08:41:00,
2013-02-07 02:46:00,55.0,54.0,29.91,NE,37,0.0,0.0,96,0.00,,,0.00,0.0,meteohub,2013-02-07 08:46:00,
2013-02-07 02:51:00,55.0,54.0,29.91,NE,37,0.0,0.0,96,0.00,,,0.00,0.0,meteohub,2013-02-07 08:51:00,
2013-02-07 02:56:00,55.0,54.0,29.91,NE,37,0.0,0.0,96,0.00,,,0.00,0.0,meteohub,2013-02-07 08:56:00,
2013-02-07 03:02:00,54.9,53.8,29.91,NE,37,0.0,0.0,96,0.00,,,0.00,0.0,meteohub,2013-02-07 09:02:00,
2013-02-07 03:07:00,54.9,53.8,29.90,NE,37,0.0,0.0,96,0.00,,,0.00,0.0,meteohub,2013-02-07 09:07:00,
2013-02-07 03:12:00,54.9,53.8,29.90,NE,37,0.0,1.0,96,0.00,,,0.00,0.0,meteohub,2013-02-07 09:12:00,
2013-02-07 03:17:00,54.9,53.8,29.91,NE,37,0.0,1.0,96,0.00,,,0.00,0.0,meteohub,2013-02-07 09:17:00,
2013-02-07 03:22:00,54.7,53.6,29.91,NE,37,0.0,1.0,96,0.00,,,0.00,0.0,meteohub,2013-02-07 09:22:00,
2013-02-07 03:27:00,54.9,53.8,29.90,NE,37,0.0,0.0,96,0.00,,,0.00,0.0,meteohub,2013-02-07 09:27:00,
2013-02-07 03:32:00,54.9,53.8,29.90,NE,37,0.0,0.0,96,0.00,,,0.00,0.0,meteohub,2013-02-07 09:32:00,
2013-02-07 03:37:00,55.0,54.0,29.90,NE,37,0.0,0.0,96,0.00,,,0.00,0.0,meteohub,2013-02-07 09:37:00,
2013-02-07 03:42:00,55.2,54.1,29.90,NE,37,0.0,0.0,96,0.00,,,0.00,0.0,meteohub,2013-02-07 09:42:00,
2013-02-07 03:47:00,55.4,54.3,29.91,NE,37,0.0,0.0,96,0.00,,,0.00,0.0,meteohub,2013-02-07 09:47:00,
2013-02-07 03:52:00,55.6,54.7,29.91,NE,37,0.0,0.0,97,0.01,,,0.01,0.0,meteohub,2013-02-07 09:52:00,
2013-02-07 03:57:00,55.8,54.7,29.91,NE,37,0.0,0.0,96,0.01,,,0.01,0.0,meteohub,2013-02-07 09:57:00,
2013-02-07 04:02:00,55.8,54.9,29.91,NE,37,0.0,0.0,97,0.01,,,0.01,0.0,meteohub,2013-02-07 10:02:00,
2013-02-07 04:07:00,55.8,54.9,29.91,NE,37,0.0,0.0,97,0.01,,,0.01,0.0,meteohub,2013-02-07 10:07:00,
2013-02-07 04:12:00,55.9,55.0,29.90,NE,37,0.0,0.0,97,0.01,,,0.01,0.0,meteohub,2013-02-07 10:12:00,
2013-02-07 04:17:00,55.9,55.0,29.89,NE,37,0.0,0.0,97,0.01,,,0.01,0.0,meteohub,2013-02-07 10:17:00,
2013-02-07 04:22:00,56.1,55.0,29.89,NE,37,0.0,0.0,96,0.01,,,0.01,0.0,meteohub,2013-02-07 10:22:00,
2013-02-07 04:27:00,56.1,55.0,29.90,NE,37,0.0,0.0,96,0.01,,,0.01,0.0,meteohub,2013-02-07 10:27:00,
2013-02-07 04:32:00,56.1,55.2,29.90,NE,37,0.0,0.0,97,0.01,,,0.01,0.0,meteohub,2013-02-07 10:32:00,
2013-02-07 04:37:00,56.1,55.2,29.90,NE,37,0.0,0.0,97,0.01,,,0.01,0.0,meteohub,2013-02-07 10:37:00,
2013-02-07 04:42:00,56.3,55.4,29.90,NE,37,0.0,0.0,97,0.01,,,0.01,0.0,meteohub,2013-02-07 10:42:00,
2013-02-07 04:47:00,56.3,55.4,29.89,NE,37,0.0,0.0,97,0.00,,,0.01,0.0,meteohub,2013-02-07 10:47:00,
2013-02-07 04:52:00,56.5,55.6,29.89,NE,37,0.0,0.0,97,0.00,,,0.01,0.0,meteohub,2013-02-07 10:52:00,
2013-02-07 04:57:00,56.5,55.6,29.89,NE,37,0.0,0.0,97,0.00,,,0.01,0.0,meteohub,2013-02-07 10:57:00,
2013-02-07 05:02:00,56.5,55.6,29.89,NE,37,0.0,0.0,97,0.00,,,0.01,0.0,meteohub,2013-02-07 11:02:00,
2013-02-07 05:07:00,56.5,55.6,29.89,NE,37,0.0,0.0,97,0.00,,,0.01,0.0,meteohub,2013-02-07 11:07:00,
2013-02-07 05:12:00,56.5,55.6,29.89,NE,37,0.0,0.0,97,0.00,,,0.01,0.0,meteohub,2013-02-07 11:12:00,
2013-02-07 05:17:00,56.5,55.6,29.89,NE,37,0.0,0.0,97,0.00,,,0.01,0.0,meteohub,2013-02-07 11:17:00,
2013-02-07 05:22:00,56.3,55.4,29.89,NE,37,0.0,0.0,97,0.00,,,0.01,0.0,meteohub,2013-02-07 11:22:00,
2013-02-07 05:27:00,56.3,55.4,29.89,NE,37,0.0,0.0,97,0.00,,,0.01,0.0,meteohub,2013-02-07 11:27:00,
2013-02-07 05:32:00,56.1,55.2,29.89,NE,37,0.0,0.0,97,0.00,,,0.01,0.0,meteohub,2013-02-07 11:32:00,
2013-02-07 05:37:00,56.1,55.2,29.89,NE,37,0.0,0.0,97,0.00,,,0.01,0.0,meteohub,2013-02-07 11:37:00,
2013-02-07 05:42:00,56.1,55.2,29.90,NE,37,0.0,0.0,97,0.00,,,0.01,0.0,meteohub,2013-02-07 11:42:00,
2013-02-07 05:47:00,56.1,55.2,29.90,NE,37,0.0,0.0,97,0.00,,,0.01,0.0,meteohub,2013-02-07 11:47:00,
2013-02-07 05:52:00,56.3,55.4,29.90,NE,37,0.0,0.0,97,0.00,,,0.01,0.0,meteohub,2013-02-07 11:52:00,
2013-02-07 05:57:00,56.3,55.4,29.90,NE,37,0.0,0.0,97,0.00,,,0.01,0.0,meteohub,2013-02-07 11:57:00,
2013-02-07 06:02:00,56.5,55.6,29.90,NE,37,0.0,0.0,97,0.00,,,0.01,0.0,meteohub,2013-02-07 12:02:00,
2013-02-07 06:07:00,56.5,55.6,29.90,NE,37,0.0,0.0,97,0.00,,,0.01,0.0,meteohub,2013-02-07 12:07:00,
2013-02-07 06:12:00,56.5,55.6,29.90,NE,37,0.0,0.0,97,0.00,,,0.01,0.0,meteohub,2013-02-07 12:12:00,
2013-02-07 06:17:00,56.5,55.6,29.90,NE,37,0.0,0.0,97,0.00,,,0.01,0.0,meteohub,2013-02-07 12:17:00,
2013-02-07 06:22:00,56.5,55.6,29.91,NE,37,0.0,0.0,97,0.00,,,0.01,0.0,meteohub,2013-02-07 12:22:00,
2013-02-07 06:27:00,56.5,55.6,29.91,NE,37,0.0,0.0,97,0.00,,,0.01,0.0,meteohub,2013-02-07 12:27:00,
2013-02-07 06:32:00,56.5,55.6,29.91,NE,37,0.0,0.0,97,0.00,,,0.01,0.0,meteohub,2013-02-07 12:32:00,
2013-02-07 06:37:00,56.5,55.6,29.92,NE,37,0.0,0.0,97,0.00,,,0.01,0.0,meteohub,2013-02-07 12:37:00,
2013-02-07 06:42:00,56.5,55.6,29.92,NE,37,0.0,0.0,97,0.00,,,0.01,0.0,meteohub,2013-02-07 12:42:00,
2013-02-07 06:47:00,56.7,55.8,29.92,NE,37,0.0,0.0,97,0.00,,,0.01,0.0,meteohub,2013-02-07 12:47:00,
2013-02-07 06:52:00,56.7,55.8,29.92,NE,37,0.0,0.0,97,0.00,,,0.01,0.0,meteohub,2013-02-07 12:52:00,
2013-02-07 06:57:00,56.7,55.8,29.92,NE,37,0.0,0.0,97,0.00,,,0.01,0.0,meteohub,2013-02-07 12:57:00,
2013-02-07 07:02:00,56.7,55.8,29.92,NE,37,0.0,0.0,97,0.00,,,0.01,0.0,meteohub,2013-02-07 13:02:00,
2013-02-07 07:07:00,56.7,55.8,29.92,NE,37,0.0,0.0,97,0.00,,,0.01,0.0,meteohub,2013-02-07 13:07:00,
2013-02-07 07:12:00,56.7,55.8,29.92,NE,37,0.0,0.0,97,0.00,,,0.01,5.0,meteohub,2013-02-07 13:12:00,
2013-02-07 07:17:00,56.7,55.8,29.93,NE,37,0.0,0.0,97,0.00,,,0.01,7.0,meteohub,2013-02-07 13:17:00,
2013-02-07 07:22:00,56.7,55.8,29.93,NE,37,0.0,0.0,97,0.00,,,0.01,9.0,meteohub,2013-02-07 13:22:00,
2013-02-07 07:27:00,56.7,55.8,29.93,NE,37,0.0,0.0,97,0.00,,,0.01,11.0,meteohub,2013-02-07 13:27:00,
2013-02-07 07:32:00,56.7,55.8,29.94,NE,37,0.0,0.0,97,0.00,,,0.01,14.0,meteohub,2013-02-07 13:32:00,
2013-02-07 07:37:00,56.8,55.9,29.94,NE,37,0.0,0.0,97,0.00,,,0.01,18.0,meteohub,2013-02-07 13:37:00,
2013-02-07 07:43:00,56.8,55.9,29.94,NE,37,0.0,0.0,97,0.00,,,0.01,21.0,meteohub,2013-02-07 13:43:00,
2013-02-07 07:48:00,56.8,55.9,29.93,NE,37,0.0,0.0,97,0.00,,,0.01,26.0,meteohub,2013-02-07 13:48:00,
2013-02-07 07:53:00,56.8,55.9,29.93,NE,37,0.0,0.0,97,0.00,,,0.01,35.0,meteohub,2013-02-07 13:53:00,
2013-02-07 07:58:00,57.0,56.1,29.94,NE,37,0.0,0.0,97,0.00,,,0.01,37.0,meteohub,2013-02-07 13:58:00,
2013-02-07 08:03:00,57.0,56.1,29.94,NE,37,0.0,0.0,97,0.00,,,0.01,49.0,meteohub,2013-02-07 14:03:00,
2013-02-07 08:08:00,57.2,56.3,29.94,NE,37,0.0,0.0,97,0.00,,,0.01,47.0,meteohub,2013-02-07 14:08:00,
2013-02-07 08:13:00,57.4,56.5,29.94,NE,37,0.0,0.0,97,0.00,,,0.01,47.0,meteohub,2013-02-07 14:13:00,
2013-02-07 08:18:00,57.6,56.7,29.94,NE,37,0.0,0.0,97,0.00,,,0.01,56.0,meteohub,2013-02-07 14:18:00,
2013-02-07 08:23:00,57.6,56.7,29.95,NE,37,0.0,0.0,97,0.00,,,0.01,60.0,meteohub,2013-02-07 14:23:00,
2013-02-07 08:28:00,57.7,56.8,29.95,NE,37,0.0,0.0,97,0.00,,,0.01,63.0,meteohub,2013-02-07 14:28:00,
2013-02-07 08:33:00,57.9,57.0,29.96,NE,37,0.0,0.0,97,0.00,,,0.01,65.0,meteohub,2013-02-07 14:33:00,
2013-02-07 08:38:00,57.9,57.0,29.96,NE,37,0.0,0.0,97,0.00,,,0.01,67.0,meteohub,2013-02-07 14:38:00,
2013-02-07 08:43:00,58.1,57.2,29.96,NE,37,0.0,0.0,97,0.00,,,0.01,63.0,meteohub,2013-02-07 14:43:00,
2013-02-07 08:48:00,58.3,57.4,29.96,NE,37,0.0,0.0,97,0.00,,,0.01,70.0,meteohub,2013-02-07 14:48:00,
2013-02-07 08:53:00,58.5,57.6,29.96,NE,37,0.0,0.0,97,0.00,,,0.01,86.0,meteohub,2013-02-07 14:53:00,
2013-02-07 08:58:00,58.5,57.6,29.96,NE,37,0.0,0.0,97,0.00,,,0.01,95.0,meteohub,2013-02-07 14:58:00,
2013-02-07 09:03:00,58.6,57.7,29.96,NE,37,0.0,0.0,97,0.00,,,0.01,95.0,meteohub,2013-02-07 15:03:00,
2013-02-07 09:08:00,58.6,57.7,29.96,NE,37,0.0,0.0,97,0.00,,,0.01,98.0,meteohub,2013-02-07 15:08:00,
2013-02-07 09:13:00,58.8,57.9,29.96,NE,37,0.0,0.0,97,0.00,,,0.01,109.0,meteohub,2013-02-07 15:13:00,
2013-02-07 09:18:00,59.0,58.5,29.96,NE,37,0.0,0.0,98,0.00,,,0.01,102.0,meteohub,2013-02-07 15:18:00,
2013-02-07 09:23:00,59.0,58.5,29.96,NE,37,0.0,0.0,98,0.00,,,0.01,102.0,meteohub,2013-02-07 15:23:00,
2013-02-07 09:28:00,59.0,58.1,29.97,NE,37,0.0,0.0,97,0.00,,,0.01,100.0,meteohub,2013-02-07 15:28:00,
2013-02-07 09:33:00,59.0,58.1,29.97,NE,37,0.0,0.0,97,0.00,,,0.01,105.0,meteohub,2013-02-07 15:33:00,
2013-02-07 09:38:00,59.0,58.1,29.97,NE,37,0.0,0.0,97,0.00,,,0.01,114.0,meteohub,2013-02-07 15:38:00,
2013-02-07 09:43:00,59.0,58.1,29.97,NE,37,0.0,0.0,97,0.00,,,0.01,118.0,meteohub,2013-02-07 15:43:00,
2013-02-07 09:48:00,59.2,58.3,29.97,South,171,1.0,0.0,97,0.00,,,0.01,130.0,meteohub,2013-02-07 15:48:00,
2013-02-07 09:53:00,59.4,58.5,29.97,South,171,0.0,2.0,97,0.00,,,0.01,134.0,meteohub,2013-02-07 15:53:00,
2013-02-07 09:58:00,59.5,58.6,29.97,South,171,0.0,2.0,97,0.00,,,0.01,146.0,meteohub,2013-02-07 15:58:00,
2013-02-07 10:03:00,59.5,59.0,29.97,South,171,0.0,2.0,98,0.00,,,0.01,142.0,meteohub,2013-02-07 16:03:00,
2013-02-07 10:08:00,59.7,59.2,29.97,South,171,0.0,0.0,98,0.00,,,0.01,146.0,meteohub,2013-02-07 16:08:00,
2013-02-07 10:13:00,60.1,59.2,29.97,South,171,0.0,0.0,97,0.00,,,0.01,137.0,meteohub,2013-02-07 16:13:00,
2013-02-07 10:19:00,60.1,59.2,29.98,South,171,0.0,0.0,97,0.00,,,0.01,141.0,meteohub,2013-02-07 16:19:00,
2013-02-07 10:24:00,60.3,59.7,29.98,South,171,0.0,0.0,98,0.00,,,0.01,148.0,meteohub,2013-02-07 16:24:00,
2013-02-07 10:29:00,60.3,59.7,29.98,South,171,0.0,0.0,98,0.00,,,0.01,148.0,meteohub,2013-02-07 16:29:00,
2013-02-07 10:34:00,60.3,59.4,29.98,South,172,0.0,0.0,97,0.00,,,0.01,160.0,meteohub,2013-02-07 16:34:00,
2013-02-07 10:39:00,60.3,59.4,29.98,South,172,0.0,0.0,97,0.00,,,0.01,171.0,meteohub,2013-02-07 16:39:00,
2013-02-07 10:44:00,60.4,59.5,29.98,South,172,0.0,0.0,97,0.00,,,0.01,178.0,meteohub,2013-02-07 16:44:00,
2013-02-07 10:49:00,61.0,60.1,29.98,South,172,0.0,0.0,97,0.00,,,0.01,186.0,meteohub,2013-02-07 16:49:00,
2013-02-07 10:54:00,61.3,59.9,29.98,South,172,0.0,0.0,95,0.00,,,0.01,185.0,meteohub,2013-02-07 16:54:00,
2013-02-07 10:59:00,61.5,59.7,29.98,South,172,0.0,0.0,94,0.00,,,0.01,204.0,meteohub,2013-02-07 16:59:00,
2013-02-07 11:04:00,61.5,58.8,29.98,South,172,0.0,0.0,91,0.00,,,0.01,225.0,meteohub,2013-02-07 17:04:00,
2013-02-07 11:09:00,62.2,59.0,29.98,South,172,0.0,0.0,89,0.00,,,0.01,253.0,meteohub,2013-02-07 17:09:00,
2013-02-07 11:14:00,62.4,58.5,29.98,South,172,0.0,0.0,87,0.00,,,0.01,253.0,meteohub,2013-02-07 17:14:00,
2013-02-07 11:19:00,62.4,58.1,29.98,South,172,0.0,0.0,86,0.00,,,0.01,258.0,meteohub,2013-02-07 17:19:00,
2013-02-07 11:24:00,62.6,57.7,29.98,South,172,0.0,0.0,84,0.00,,,0.01,265.0,meteohub,2013-02-07 17:24:00,
2013-02-07 11:29:00,62.6,57.4,29.97,South,172,0.0,0.0,83,0.00,,,0.01,264.0,meteohub,2013-02-07 17:29:00,
2013-02-07 11:34:00,62.6,57.7,29.97,South,172,0.0,0.0,84,0.00,,,0.01,232.0,meteohub,2013-02-07 17:34:00,
2013-02-07 11:39:00,62.8,57.6,29.97,South,172,0.0,0.0,83,0.00,,,0.01,214.0,meteohub,2013-02-07 17:39:00,
2013-02-07 11:44:00,63.0,58.1,29.97,South,183,0.0,0.0,84,0.00,,,0.01,216.0,meteohub,2013-02-07 17:44:00,
2013-02-07 11:49:00,63.0,57.7,29.97,South,183,0.0,4.0,83,0.00,,,0.01,223.0,meteohub,2013-02-07 17:49:00,
2013-02-07 11:54:00,63.3,58.5,29.98,South,183,0.0,4.0,84,0.00,,,0.01,195.0,meteohub,2013-02-07 17:54:00,
2013-02-07 11:59:00,63.3,58.5,29.98,South,181,0.0,4.0,84,0.00,,,0.01,211.0,meteohub,2013-02-07 17:59:00,
2013-02-07 12:04:00,63.3,58.1,29.97,South,182,0.0,5.0,83,0.00,,,0.01,236.0,meteohub,2013-02-07 18:04:00,
2013-02-07 12:09:00,63.1,57.2,29.97,South,182,0.0,5.0,81,0.00,,,0.01,221.0,meteohub,2013-02-07 18:09:00,
2013-02-07 12:14:00,63.3,57.7,29.97,South,181,0.0,5.0,82,0.00,,,0.01,202.0,meteohub,2013-02-07 18:14:00,
2013-02-07 12:19:00,63.7,58.5,29.97,South,182,1.0,3.0,83,0.00,,,0.01,223.0,meteohub,2013-02-07 18:19:00,
2013-02-07 12:24:00,63.9,58.6,29.97,South,182,0.0,3.0,83,0.00,,,0.01,216.0,meteohub,2013-02-07 18:24:00,
2013-02-07 12:29:00,63.3,57.7,29.96,SSW,204,0.0,3.0,82,0.00,,,0.01,227.0,meteohub,2013-02-07 18:29:00,
2013-02-07 12:34:00,63.3,57.4,29.96,SSW,204,0.0,5.0,81,0.00,,,0.01,230.0,meteohub,2013-02-07 18:34:00,
2013-02-07 12:39:00,63.3,57.4,29.95,SSW,204,0.0,5.0,81,0.00,,,0.01,227.0,meteohub,2013-02-07 18:39:00,
2013-02-07 12:44:00,63.1,57.6,29.95,SSW,205,0.0,5.0,82,0.00,,,0.01,250.0,meteohub,2013-02-07 18:44:00,
2013-02-07 12:49:00,63.7,57.7,29.94,SSW,205,0.0,3.0,81,0.00,,,0.01,295.0,meteohub,2013-02-07 18:49:00,
2013-02-07 12:54:00,63.9,57.9,29.94,South,183,0.0,4.0,81,0.00,,,0.01,397.0,meteohub,2013-02-07 18:54:00,
2013-02-07 12:59:00,64.6,58.3,29.94,SSW,205,3.0,4.0,80,0.00,,,0.01,366.0,meteohub,2013-02-07 18:59:00,
2013-02-07 13:04:00,64.4,58.1,29.94,SSW,200,2.0,4.0,80,0.00,,,0.01,341.0,meteohub,2013-02-07 19:04:00,
2013-02-07 13:09:00,64.9,59.0,29.94,SSW,199,0.0,4.0,81,0.00,,,0.01,840.0,meteohub,2013-02-07 19:09:00,
2013-02-07 13:14:00,65.3,58.3,29.94,WSW,238,0.0,5.0,78,0.00,,,0.01,329.0,meteohub,2013-02-07 19:14:00,
2013-02-07 13:19:00,65.7,58.6,29.94,SW,230,3.0,5.0,78,0.00,,,0.01,534.0,meteohub,2013-02-07 19:19:00,
2013-02-07 13:25:00,66.0,59.0,29.93,South,187,0.0,5.0,78,0.00,,,0.01,311.0,meteohub,2013-02-07 19:25:00,
2013-02-07 13:30:00,66.0,59.4,29.93,SW,215,3.0,4.0,79,0.00,,,0.01,390.0,meteohub,2013-02-07 19:30:00,
2013-02-07 13:35:00,65.5,58.5,29.94,SSW,206,0.0,4.0,78,0.00,,,0.01,255.0,meteohub,2013-02-07 19:35:00,
2013-02-07 13:40:00,64.9,58.6,29.94,SSW,206,0.0,4.0,80,0.00,,,0.01,241.0,meteohub,2013-02-07 19:40:00,
2013-02-07 13:45:00,64.6,58.3,29.93,SSW,206,0.0,4.0,80,0.00,,,0.01,213.0,meteohub,2013-02-07 19:45:00,
2013-02-07 13:50:00,64.4,58.5,29.93,WSW,239,0.0,4.0,81,0.00,,,0.01,232.0,meteohub,2013-02-07 19:50:00,
2013-02-07 13:55:00,64.8,58.8,29.93,WSW,239,0.0,1.0,81,0.00,,,0.01,239.0,meteohub,2013-02-07 19:55:00,
2013-02-07 14:00:00,64.6,57.9,29.93,West,271,0.0,1.0,79,0.00,,,0.01,230.0,meteohub,2013-02-07 20:00:00,
2013-02-07 14:05:00,64.2,57.9,29.93,West,269,0.0,5.0,80,0.00,,,0.01,220.0,meteohub,2013-02-07 20:05:00,
2013-02-07 14:10:00,64.6,58.3,29.93,SW,225,2.0,5.0,80,0.00,,,0.01,207.0,meteohub,2013-02-07 20:10:00,
2013-02-07 14:15:00,64.6,58.3,29.92,SW,224,0.0,5.0,80,0.00,,,0.01,206.0,meteohub,2013-02-07 20:15:00,
2013-02-07 14:20:00,64.8,58.5,29.92,SW,224,0.0,3.0,80,0.00,,,0.01,279.0,meteohub,2013-02-07 20:20:00,
2013-02-07 14:25:00,65.7,58.3,29.92,South,187,0.0,3.0,77,0.00,,,0.40,394.0,meteohub,2013-02-07 20:25:00,
2013-02-07 14:30:00,66.0,58.3,29.92,South,184,0.0,3.0,76,0.00,,,0.01,425.0,meteohub,2013-02-07 20:30:00,
2013-02-07 14:35:00,65.8,58.1,29.92,SW,215,0.0,3.0,76,0.00,,,0.01,399.0,meteohub,2013-02-07 20:35:00,
2013-02-07 14:40:00,65.8,58.5,29.91,WSW,258,0.0,4.0,77,0.00,,,0.01,93.0,meteohub,2013-02-07 20:40:00,
2013-02-07 14:45:00,66.4,59.0,29.91,WSW,241,0.0,4.0,77,0.00,,,0.01,211.0,meteohub,2013-02-07 20:45:00,
2013-02-07 14:50:00,66.0,58.3,29.91,West,272,3.0,4.0,76,0.00,,,0.01,178.0,meteohub,2013-02-07 20:50:00,
2013-02-07 14:55:00,65.8,58.1,29.91,WNW,286,0.0,4.0,76,0.00,,,0.01,107.0,meteohub,2013-02-07 20:55:00,
2013-02-07 15:00:00,66.4,59.0,29.91,WNW,285,0.0,5.0,77,0.00,,,0.01,207.0,meteohub,2013-02-07 21:00:00,
2013-02-07 15:05:00,66.4,58.3,29.91,West,273,0.0,5.0,75,0.00,,,0.01,86.0,meteohub,2013-02-07 21:05:00,
2013-02-07 15:10:00,66.4,58.6,29.91,SSW,202,0.0,5.0,76,0.00,,,0.01,211.0,meteohub,2013-02-07 21:10:00,
2013-02-07 15:15:00,66.0,58.3,29.91,SSW,209,0.0,5.0,76,0.00,,,0.01,142.0,meteohub,2013-02-07 21:15:00,
2013-02-07 15:20:00,65.8,58.5,29.91,SSW,209,0.0,1.0,77,0.00,,,0.01,100.0,meteohub,2013-02-07 21:20:00,
2013-02-07 15:25:00,65.7,59.0,29.91,SSW,208,0.0,1.0,79,0.00,,,0.01,144.0,meteohub,2013-02-07 21:25:00,
2013-02-07 15:30:00,66.0,58.6,29.90,SSW,209,0.0,1.0,77,0.00,,,0.01,294.0,meteohub,2013-02-07 21:30:00,
2013-02-07 15:35:00,66.6,58.8,29.90,WSW,248,0.0,1.0,76,0.00,,,0.01,274.0,meteohub,2013-02-07 21:35:00,
2013-02-07 15:40:00,66.4,58.6,29.91,WSW,248,0.0,1.0,76,0.00,,,0.01,151.0,meteohub,2013-02-07 21:40:00,
2013-02-07 15:45:00,66.0,58.6,29.90,WSW,248,0.0,1.0,77,0.00,,,0.01,156.0,meteohub,2013-02-07 21:45:00,
2013-02-07 15:50:00,66.4,58.6,29.90,WSW,248,0.0,2.0,76,0.00,,,0.01,144.0,meteohub,2013-02-07 21:50:00,
2013-02-07 15:55:00,66.7,59.0,29.90,West,260,0.0,2.0,76,0.00,,,0.01,288.0,meteohub,2013-02-07 21:55:00,
2013-02-07 16:00:00,66.9,58.8,29.90,NNE,12,0.0,4.0,75,0.00,,,0.01,223.0,meteohub,2013-02-07 22:00:00,
2013-02-07 16:05:00,66.7,58.6,29.90,NW,306,0.0,4.0,75,0.00,,,0.01,167.0,meteohub,2013-02-07 22:05:00,
2013-02-07 16:10:00,66.6,58.8,29.90,NW,306,0.0,4.0,76,0.00,,,0.01,109.0,meteohub,2013-02-07 22:10:00,
2013-02-07 16:15:00,66.4,59.0,29.90,NW,306,0.0,1.0,77,0.00,,,0.01,86.0,meteohub,2013-02-07 22:15:00,
2013-02-07 16:20:00,66.4,59.4,29.90,NW,306,0.0,1.0,78,0.00,,,0.01,118.0,meteohub,2013-02-07 22:20:00,
2013-02-07 16:25:00,66.6,59.2,29.90,NW,306,0.0,0.0,77,0.00,,,0.01,202.0,meteohub,2013-02-07 22:25:00,
2013-02-07 16:30:00,66.7,59.4,29.91,NW,306,0.0,0.0,77,0.00,,,0.01,190.0,meteohub,2013-02-07 22:30:00,
2013-02-07 16:35:00,66.9,59.2,29.90,SW,231,0.0,0.0,76,0.00,,,0.01,169.0,meteohub,2013-02-07 22:35:00,
2013-02-07 16:40:00,66.7,59.0,29.91,SW,230,0.0,3.0,76,0.00,,,0.01,156.0,meteohub,2013-02-07 22:40:00,
2013-02-07 16:45:00,66.6,58.8,29.90,SW,230,0.0,3.0,76,0.00,,,0.01,135.0,meteohub,2013-02-07 22:45:00,
2013-02-07 16:51:00,66.4,59.0,29.90,SW,230,0.0,3.0,77,0.00,,,0.01,35.0,meteohub,2013-02-07 22:51:00,
2013-02-07 16:56:00,66.2,58.8,29.90,SW,230,0.0,0.0,77,0.00,,,0.01,32.0,meteohub,2013-02-07 22:56:00,
2013-02-07 17:01:00,66.0,58.6,29.90,NNE,22,0.0,0.0,77,0.00,,,0.01,28.0,meteohub,2013-02-07 23:01:00,
2013-02-07 17:06:00,66.0,58.6,29.90,NNE,32,0.0,1.0,77,0.00,,,0.01,26.0,meteohub,2013-02-07 23:06:00,
2013-02-07 17:11:00,65.8,58.8,29.90,NNE,32,0.0,1.0,78,0.00,,,0.01,25.0,meteohub,2013-02-07 23:11:00,
2013-02-07 17:16:00,65.7,58.6,29.90,NNE,32,0.0,1.0,78,0.00,,,0.01,21.0,meteohub,2013-02-07 23:16:00,
2013-02-07 17:21:00,65.7,58.6,29.90,NNE,32,0.0,1.0,78,0.00,,,0.01,19.0,meteohub,2013-02-07 23:21:00,
2013-02-07 17:26:00,65.1,58.5,29.90,NNE,32,0.0,1.0,79,0.00,,,0.01,18.0,meteohub,2013-02-07 23:26:00,
2013-02-07 17:31:00,64.6,58.6,29.91,NNE,32,0.0,0.0,81,0.00,,,0.01,14.0,meteohub,2013-02-07 23:31:00,
2013-02-07 17:36:00,64.0,58.5,29.90,NNE,32,0.0,0.0,82,0.00,,,0.01,12.0,meteohub,2013-02-07 23:36:00,
2013-02-07 17:41:00,63.9,58.3,29.91,NNE,32,0.0,0.0,82,0.00,,,0.01,9.0,meteohub,2013-02-07 23:41:00,
2013-02-07 17:46:00,63.5,58.3,29.91,NNE,32,0.0,0.0,83,0.00,,,0.01,7.0,meteohub,2013-02-07 23:46:00,
2013-02-07 17:51:00,63.1,57.9,29.91,NNE,32,0.0,0.0,83,0.00,,,0.01,0.0,meteohub,2013-02-07 23:51:00,
2013-02-07 17:56:00,62.8,57.9,29.91,NNE,32,0.0,0.0,84,0.00,,,0.01,0.0,meteohub,2013-02-07 23:56:00,
2013-02-07 18:01:00,62.2,57.9,29.91,NNE,32,0.0,0.0,86,0.00,,,0.01,0.0,meteohub,2013-02-08 00:01:00,
2013-02-07 18:06:00,62.1,58.5,29.91,NNE,32,0.0,0.0,88,0.00,,,0.01,0.0,meteohub,2013-02-08 00:06:00,
2013-02-07 18:11:00,61.5,57.6,29.91,NNE,32,0.0,0.0,87,0.00,,,0.01,0.0,meteohub,2013-02-08 00:11:00,
2013-02-07 18:16:00,61.3,57.7,29.91,NNE,32,0.0,0.0,88,0.00,,,0.01,0.0,meteohub,2013-02-08 00:16:00,
2013-02-07 18:21:00,61.2,57.6,29.91,NNE,32,0.0,0.0,88,0.00,,,0.01,0.0,meteohub,2013-02-08 00:21:00,
2013-02-07 18:26:00,61.0,57.7,29.91,NNE,32,0.0,0.0,89,0.00,,,0.01,0.0,meteohub,2013-02-08 00:26:00,
2013-02-07 18:31:00,60.6,57.4,29.91,NNE,32,0.0,0.0,89,0.00,,,0.01,0.0,meteohub,2013-02-08 00:31:00,
2013-02-07 18:36:00,60.4,57.2,29.91,NNE,32,0.0,0.0,89,0.00,,,0.01,0.0,meteohub,2013-02-08 00:36:00,
2013-02-07 18:41:00,60.3,57.4,29.91,NNE,32,0.0,0.0,90,0.00,,,0.01,0.0,meteohub,2013-02-08 00:41:00,
2013-02-07 18:46:00,59.9,57.0,29.92,NNE,32,0.0,0.0,90,0.00,,,0.01,0.0,meteohub,2013-02-08 00:46:00,
2013-02-07 18:51:00,59.5,56.8,29.92,NNE,32,0.0,0.0,91,0.00,,,0.01,0.0,meteohub,2013-02-08 00:51:00,
2013-02-07 18:56:00,59.5,56.8,29.93,NNE,32,0.0,0.0,91,0.00,,,0.01,0.0,meteohub,2013-02-08 00:56:00,
2013-02-07 19:01:00,59.5,57.2,29.93,NNE,32,0.0,0.0,92,0.00,,,0.01,0.0,meteohub,2013-02-08 01:01:00,
2013-02-07 19:06:00,59.5,57.2,29.93,NNE,32,0.0,0.0,92,0.00,,,0.01,0.0,meteohub,2013-02-08 01:06:00,
2013-02-07 19:11:00,59.7,57.4,29.93,NNE,32,0.0,0.0,92,0.00,,,0.01,0.0,meteohub,2013-02-08 01:11:00,
2013-02-07 19:16:00,60.1,57.7,29.93,NNE,32,0.0,0.0,92,0.00,,,0.01,0.0,meteohub,2013-02-08 01:16:00,
2013-02-07 19:21:00,60.3,57.9,29.93,NNE,32,0.0,0.0,92,0.00,,,0.01,0.0,meteohub,2013-02-08 01:21:00,
2013-02-07 19:26:00,60.4,58.1,29.93,NNE,32,0.0,0.0,92,0.00,,,0.01,0.0,meteohub,2013-02-08 01:26:00,
2013-02-07 19:31:00,60.6,58.3,29.93,NNE,32,0.0,0.0,92,0.00,,,0.01,0.0,meteohub,2013-02-08 01:31:00,
2013-02-07 19:36:00,61.0,58.3,29.93,NNE,32,0.0,0.0,91,0.00,,,0.01,0.0,meteohub,2013-02-08 01:36:00,
2013-02-07 19:41:00,61.0,58.3,29.93,South,177,0.0,2.0,91,0.00,,,0.01,0.0,meteohub,2013-02-08 01:41:00,
2013-02-07 19:46:00,61.2,58.8,29.94,South,180,0.0,3.0,92,0.00,,,0.01,0.0,meteohub,2013-02-08 01:46:00,
2013-02-07 19:51:00,61.3,59.0,29.94,South,181,1.0,3.0,92,0.00,,,0.01,0.0,meteohub,2013-02-08 01:51:00,
2013-02-07 19:56:00,61.5,58.8,29.94,South,189,0.0,5.0,91,0.00,,,0.01,0.0,meteohub,2013-02-08 01:56:00,
2013-02-07 20:01:00,61.7,59.0,29.94,South,189,0.0,5.0,91,0.00,,,0.01,0.0,meteohub,2013-02-08 02:01:00,
2013-02-07 20:06:00,61.7,59.0,29.94,South,188,0.0,5.0,91,0.00,,,0.01,0.0,meteohub,2013-02-08 02:06:00,
2013-02-07 20:12:00,61.9,59.2,29.94,South,189,0.0,3.0,91,0.00,,,0.01,0.0,meteohub,2013-02-08 02:12:00,
2013-02-07 20:17:00,61.9,59.2,29.94,South,188,0.0,3.0,91,0.00,,,0.01,0.0,meteohub,2013-02-08 02:17:00,
2013-02-07 20:22:00,61.7,59.0,29.94,South,188,0.0,1.0,91,0.00,,,0.01,0.0,meteohub,2013-02-08 02:22:00,
2013-02-07 20:27:00,61.7,59.0,29.94,South,189,0.0,3.0,91,0.00,,,0.01,0.0,meteohub,2013-02-08 02:27:00,
2013-02-07 20:31:00,61.7,58.8,29.94,South,189,0.0,3.0,90,0.00,,,0.01,0.0,meteohub,2013-02-08 02:31:00,
2013-02-07 20:37:00,61.5,58.6,29.94,South,189,0.0,3.0,90,0.00,,,0.01,0.0,meteohub,2013-02-08 02:37:00,
2013-02-07 20:42:00,61.5,58.6,29.94,South,189,0.0,3.0,90,0.00,,,0.01,0.0,meteohub,2013-02-08 02:42:00,
2013-02-07 20:47:00,61.5,58.6,29.94,SSW,213,0.0,1.0,90,0.00,,,0.01,0.0,meteohub,2013-02-08 02:47:00,
2013-02-07 20:52:00,61.5,58.6,29.94,SW,227,0.0,4.0,90,0.00,,,0.01,0.0,meteohub,2013-02-08 02:52:00,
2013-02-07 20:57:00,61.5,58.6,29.94,SW,226,0.0,4.0,90,0.00,,,0.01,0.0,meteohub,2013-02-08 02:57:00,
2013-02-07 21:02:00,61.5,58.6,29.94,SW,227,0.0,3.0,90,0.00,,,0.01,0.0,meteohub,2013-02-08 03:02:00,
2013-02-07 21:07:00,61.5,58.6,29.95,SW,227,0.0,3.0,90,0.00,,,0.01,0.0,meteohub,2013-02-08 03:07:00,
2013-02-07 21:12:00,61.3,58.5,29.95,SW,227,0.0,0.0,90,0.00,,,0.01,0.0,meteohub,2013-02-08 03:12:00,
2013-02-07 21:17:00,61.3,58.5,29.94,SSW,194,0.0,0.0,90,0.00,,,0.01,0.0,meteohub,2013-02-08 03:17:00,
2013-02-07 21:22:00,61.3,58.5,29.94,SSW,194,0.0,4.0,90,0.00,,,0.01,0.0,meteohub,2013-02-08 03:22:00,
2013-02-07 21:27:00,61.3,58.5,29.95,SSW,194,0.0,4.0,90,0.00,,,0.01,0.0,meteohub,2013-02-08 03:27:00,
2013-02-07 21:32:00,61.3,58.6,29.95,SSW,194,0.0,4.0,91,0.00,,,0.01,0.0,meteohub,2013-02-08 03:32:00,
2013-02-07 21:37:00,61.2,58.3,29.95,SSW,194,0.0,2.0,90,0.00,,,0.01,0.0,meteohub,2013-02-08 03:37:00,
2013-02-07 21:42:00,61.3,58.5,29.95,SSW,194,0.0,1.0,90,0.00,,,0.01,0.0,meteohub,2013-02-08 03:42:00,
2013-02-07 21:47:00,61.3,58.5,29.95,SSW,194,0.0,1.0,90,0.00,,,0.01,0.0,meteohub,2013-02-08 03:47:00,
2013-02-07 21:52:00,61.2,58.3,29.95,SSW,194,0.0,0.0,90,0.00,,,0.01,0.0,meteohub,2013-02-08 03:52:00,
2013-02-07 21:57:00,61.0,58.1,29.95,SSW,194,0.0,0.0,90,0.00,,,0.01,0.0,meteohub,2013-02-08 03:57:00,
2013-02-07 22:02:00,60.8,57.9,29.94,SSW,194,0.0,0.0,90,0.00,,,0.01,0.0,meteohub,2013-02-08 04:02:00,
2013-02-07 22:07:00,60.4,57.6,29.94,SSW,194,0.0,0.0,90,0.00,,,0.01,0.0,meteohub,2013-02-08 04:07:00,
2013-02-07 22:12:00,60.3,57.6,29.95,SSW,194,0.0,0.0,91,0.00,,,0.01,0.0,meteohub,2013-02-08 04:12:00,
2013-02-07 22:17:00,59.9,57.2,29.95,SSW,194,0.0,0.0,91,0.00,,,0.01,0.0,meteohub,2013-02-08 04:17:00,
2013-02-07 22:22:00,59.5,56.8,29.95,SSW,194,0.0,0.0,91,0.00,,,0.01,0.0,meteohub,2013-02-08 04:22:00,
2013-02-07 22:27:00,59.5,57.2,29.95,SSW,194,0.0,0.0,92,0.00,,,0.01,0.0,meteohub,2013-02-08 04:27:00,
2013-02-07 22:32:00,59.5,57.2,29.96,SSW,194,0.0,0.0,92,0.00,,,0.01,0.0,meteohub,2013-02-08 04:32:00,
2013-02-07 22:37:00,59.4,57.0,29.95,SSW,194,0.0,0.0,92,0.00,,,0.01,0.0,meteohub,2013-02-08 04:37:00,
2013-02-07 22:42:00,59.4,57.0,29.96,SSW,194,0.0,0.0,92,0.00,,,0.01,0.0,meteohub,2013-02-08 04:42:00,
2013-02-07 22:47:00,59.4,57.4,29.96,SSW,194,0.0,0.0,93,0.00,,,0.01,0.0,meteohub,2013-02-08 04:47:00,
2013-02-07 22:52:00,59.4,57.4,29.96,SSW,194,0.0,0.0,93,0.00,,,0.01,0.0,meteohub,2013-02-08 04:52:00,
2013-02-07 22:57:00,59.5,57.6,29.96,SSW,194,0.0,0.0,93,0.00,,,0.01,0.0,meteohub,2013-02-08 04:57:00,
2013-02-07 23:00:00,59.5,57.6,29.96,SSW,194,0.0,0.0,93,0.00,,,0.01,0.0,meteohub,2013-02-08 05:00:00,
2013-02-07 23:01:00,59.5,57.6,29.96,SSW,194,0.0,0.0,93,0.00,,,0.01,0.0,meteohub,2013-02-08 05:01:00,
2013-02-07 23:06:00,59.5,57.6,29.96,SSW,194,0.0,0.0,93,0.00,,,0.01,0.0,meteohub,2013-02-08 05:06:00,
2013-02-07 23:11:00,59.5,57.6,29.97,SSW,194,0.0,0.0,93,0.00,,,0.01,0.0,meteohub,2013-02-08 05:11:00,
2013-02-07 23:16:00,59.5,57.6,29.96,SSW,194,0.0,0.0,93,0.00,,,0.01,0.0,meteohub,2013-02-08 05:16:00,
2013-02-07 23:21:00,59.5,57.6,29.96,SSW,194,0.0,0.0,93,0.00,,,0.01,0.0,meteohub,2013-02-08 05:21:00,
2013-02-07 23:26:00,59.7,57.7,29.96,SSW,194,0.0,0.0,93,0.00,,,0.01,0.0,meteohub,2013-02-08 05:26:00,
2013-02-07 23:31:00,59.7,57.7,29.96,ESE,106,0.0,2.0,93,0.00,,,0.01,0.0,meteohub,2013-02-08 05:31:00,
2013-02-07 23:36:00,59.9,57.9,29.96,ESE,106,0.0,3.0,93,0.00,,,0.01,0.0,meteohub,2013-02-08 05:36:00,
2013-02-07 23:41:00,60.1,58.1,29.96,East,94,0.0,3.0,93,0.00,,,0.01,0.0,meteohub,2013-02-08 05:41:00,
2013-02-07 23:46:00,60.1,58.1,29.96,East,99,0.0,1.0,93,0.00,,,0.01,0.0,meteohub,2013-02-08 05:46:00,
2013-02-07 23:51:00,60.3,58.3,29.96,East,100,0.0,1.0,93,0.00,,,0.01,0.0,meteohub,2013-02-08 05:51:00,
2013-02-07 23:56:00,60.3,58.3,29.96,East,99,0.0,1.0,93,0.00,,,0.01,0.0,meteohub,2013-02-08 05:56:00,